Wetbulb
55.73 55.37 55.46 55.54 55.01 54.38 54.67 54.78 54.46 54.19 54.23 53.97 53.52 53.32 53.09 52.47 52.13 52.01 51.66 51.81 52.02 51.80 52.08 52.24 52.18 52.73 49.73 43.76 46.08 56.96 56.55 56.35 59.88 57.96 55.77 53.73 51.47 51.29 47.07 48.44 48.87 46.86 48.27 49.43 50.57 51.37 51.18
55.09 55.46 55.11 54.90 54.39 53.94 54.60 54.54 54.08 53.59 53.62 53.50 53.01 52.82 52.64 52.41 52.01 51.70 51.74 51.63 51.51 51.37 51.44 51.45 51.71 52.04 46.58 38.26 53.57 56.17 55.03 55.59 57.31 56.22 55.55 54.89 51.52 53.54 49.43 48.46 47.58 49.13 48.63 49.00 49.95 49.84 50.26
54.82 55.43 54.45 54.40 53.74 53.70 54.36 53.79 53.29 52.86 52.99 53.11 52.95 52.00 52.25 52.34 51.65 51.25 51.29 51.58 51.61 51.07 51.50 51.33 50.83 49.66 44.38 42.44 55.15 56.36 54.84 54.91 57.97 55.67 53.04 56.05 55.14 52.16 51.29 46.95 50.49 49.39 45.69 47.88 48.32 48.93 48.34
55.09 54.29 53.74 54.10 53.59 53.83 52.96 52.78 52.97 53.14 53.25 53.49 53.50 52.81 51.83 51.87 51.28 50.28 50.99 51.59 51.29 51.28 51.29 50.91 50.90 48.42 39.32 50.44 52.70 52.01 54.38 54.04 57.61 57.20 55.90 57.70 57.10 52.78 50.65 50.47 48.06 45.79 45.64 41.03 46.59 48.40 48.77
54.52 53.75 53.79 53.77 53.09 52.76 53.65 53.31 53.03 53.48 53.73 53.67 53.33 52.90 51.91 51.31 50.07 50.16 50.71 51.22 51.52 51.48 50.66 50.76 47.81 45.87 39.41 54.35 50.15 53.95 54.72 53.27 55.14 55.68 57.13 56.92 55.42 50.41 48.82 44.28 41.16 43.67 38.16 39.36 41.81 48.05 47.13
53.53 53.51 53.83 52.97 52.32 53.67 52.92 52.67 53.29 53.42 53.76 53.29 52.89 52.47 51.24 50.24 48.99 49.78 49.86 51.00 49.97 49.81 49.55 49.70 48.14 40.54 45.01 45.04 51.34 53.03 54.61 53.93 52.68 52.98 51.37 50.36 49.22 46.12 45.47 42.16 32.95 36.91 38.02 39.94 39.23 43.74 45.71
53.73 53.21 53.58 52.31 51.99 52.36 52.56 53.35 53.18 53.56 53.58 52.99 52.66 52.13 51.83 50.23 49.83 49.74 49.47 47.00 42.69 40.75 43.56 38.04 38.51 39.71 44.95 50.65 52.98 50.91 53.69 51.43 52.55 49.36 42.57 46.77 42.76 40.14 42.87 43.91 42.30 41.89 39.53 38.32 41.61 43.06 42.54
52.91 52.97 52.48 51.71 51.88 52.54 52.91 52.87 53.02 53.43 53.59 52.89 52.54 51.76 51.85 51.01 50.81 49.89 48.36 41.48 40.61 43.49 35.29 41.52 41.10 40.93 44.10 48.89 45.26 48.49 53.37 47.29 45.80 41.52 44.65 42.22 39.14 44.47 46.12 45.01 42.53 41.36 38.85 38.51 41.65 42.48 42.58
52.32 52.69 52.30 51.60 51.42 51.62 51.99 52.15 52.97 53.41 53.21 52.70 52.36 51.79 51.08 50.13 50.23 48.46 44.89 42.91 47.49 46.71 37.46 39.19 42.74 41.60 44.68 49.11 45.02 45.67 49.41 45.22 43.83 41.56 42.49 38.94 41.58 45.66 44.48 42.78 40.87 40.66 38.66 38.94 39.00 41.00 40.83
51.94 52.24 51.84 51.34 50.96 51.01 51.30 51.70 52.73 52.91 52.56 52.78 52.17 51.87 50.48 48.84 45.98 45.72 42.31 47.36 48.30 47.45 34.07 35.34 39.02 44.00 46.87 47.91 43.47 50.34 50.63 45.13 40.22 39.47 42.21 41.26 45.05 43.01 42.09 41.16 42.61 37.63 41.87 40.87 38.90 38.79 35.90
51.70 52.19 51.58 51.14 50.57 50.66 50.73 51.23 52.31 52.47 52.06 52.66 52.39 51.43 50.36 49.54 46.04 43.55 45.62 47.95 47.45 44.97 23.62 37.17 39.09 48.34 47.00 43.50 44.61 45.10 51.28 47.74 38.92 37.42 40.36 37.56 41.56 41.96 40.45 41.69 44.14 38.92 41.93 39.43 37.71 37.57 37.04
51.38 51.90 51.18 51.01 50.45 50.26 50.52 50.70 51.65 51.88 51.78 52.04 52.56 51.37 49.65 48.63 47.99 46.12 49.59 48.13 45.57 31.75 23.97 33.59 40.50 40.30 40.03 42.67 43.46 46.40 46.21 48.27 46.22 40.79 40.49 38.52 43.25 42.78 41.52 41.12 43.71 41.01 38.61 37.03 37.02 36.27 32.29
51.00 51.62 50.99 50.80 50.44 50.00 50.06 50.32 50.87 51.32 51.57 51.26 51.82 51.49 49.29 49.10 44.26 49.61 48.42 45.09 32.88 28.65 35.35 33.35 36.47 40.41 39.45 39.36 40.37 41.72 41.88 40.38 38.29 33.20 33.43 36.08 36.90 41.20 41.88 36.62 39.15 40.01 38.34 31.77 30.42 30.64 30.62
50.66 51.36 51.04 50.63 50.43 50.04 49.84 49.89 50.30 50.96 51.00 50.96 51.48 49.67 48.98 49.17 50.58 48.91 47.00 37.90 29.68 33.26 33.54 38.87 39.47 39.63 36.95 39.43 39.28 39.67 39.80 37.58 40.67 39.58 36.83 33.97 30.95 36.98 40.66 38.38 35.88 37.47 38.21 33.77 26.26 26.16 29.44
50.23 50.87 50.87 50.55 50.23 50.00 49.80 49.68 49.86 50.19 50.63 51.12 48.18 47.62 48.33 49.07 49.11 49.26 42.28 32.10 31.22 34.32 38.60 37.59 39.06 36.00 35.71 38.66 39.17 39.02 37.66 38.08 39.28 39.99 35.89 33.32 32.37 38.50 39.54 40.39 40.39 35.29 34.67 35.61 30.55 28.95 29.69
49.92 50.29 50.43 50.26 50.05 49.77 49.63 49.55 49.46 49.76 51.03 50.15 46.66 45.18 46.01 47.60 49.44 46.24 42.08 34.27 36.11 39.82 39.78 38.79 33.18 35.98 32.99 35.49 36.55 37.63 37.41 39.32 38.17 39.84 41.05 36.17 31.54 37.17 37.92 40.03 39.90 38.76 38.69 32.55 33.54 26.07 25.80
49.88 49.94 50.51 50.02 49.60 49.49 49.29 49.33 49.21 49.42 50.44 48.29 45.45 44.75 46.25 48.11 47.75 45.21 33.38 34.85 38.61 41.77 41.08 37.57 35.27 34.64 35.69 34.68 36.30 35.72 35.07 38.57 40.53 39.09 40.62 39.14 36.68 33.51 37.77 36.15 35.58 35.24 34.64 33.31 34.77 31.38 28.14
49.75 49.76 50.31 49.80 49.33 49.17 48.88 48.75 48.86 48.85 49.92 46.25 43.21 43.49 47.30 47.42 42.96 42.73 37.84 37.35 39.52 40.95 42.22 39.40 39.40 37.36 35.94 35.71 34.98 35.41 34.72 38.11 41.72 41.58 37.36 38.37 37.08 32.09 33.09 37.25 38.63 37.80 36.57 35.86 32.35 27.50 29.19
49.27 49.44 49.61 50.80 49.17 48.69 48.58 48.35 48.51 48.36 49.20 45.75 41.40 42.23 48.61 48.14 38.94 38.88 39.67 39.16 40.17 39.56 38.80 38.39 37.21 38.90 38.57 36.22 33.83 35.85 36.50 40.30 41.42 40.58 38.75 39.15 34.17 28.83 28.92 34.21 36.68 34.82 36.21 35.99 33.77 33.28 28.93
48.80 48.98 49.16 49.73 49.14 48.56 48.09 47.96 47.96 47.85 49.02 45.35 42.41 40.38 44.79 44.58 41.87 40.02 37.90 37.57 37.35 41.07 39.57 39.32 38.39 39.33 37.61 35.81 37.59 35.01 36.38 39.88 40.90 41.21 41.97 41.96 34.30 32.12 28.85 30.98 35.15 32.31 34.15 34.85 34.70 31.11 31.28
48.34 48.54 48.78 48.93 49.63 48.55 47.90 47.61 47.58 47.20 48.28 45.22 41.69 37.46 38.84 39.55 39.34 38.67 38.55 37.90 36.85 36.83 41.03 40.39 38.12 38.05 37.12 34.21 35.31 35.06 37.70 38.53 40.44 42.13 40.76 39.97 33.46 32.64 33.67 33.98 34.06 33.78 33.77 33.31 31.09 34.04 31.79
47.97 48.04 48.23 48.31 49.13 48.53 47.64 47.47 47.16 46.64 47.23 44.14 38.91 37.03 40.22 38.56 36.87 37.15 37.23 37.49 37.12 38.51 38.93 37.28 36.93 38.81 39.87 36.80 36.96 35.19 37.79 38.10 37.56 40.08 39.12 39.13 32.77 32.94 31.50 33.49 33.67 31.66 34.14 34.81 34.24 34.69 34.06
47.49 47.67 47.81 47.73 47.82 48.50 47.43 47.25 46.79 46.41 46.10 41.94 41.94 42.52 39.26 36.64 36.64 37.08 38.04 37.87 38.00 39.67 41.03 41.69 40.65 40.52 39.27 40.20 42.52 42.59 43.06 42.64 41.86 39.22 37.68 37.61 34.18 32.41 29.40 32.05 32.18 29.78 33.57 34.40 35.22 36.46 36.28
47.32 47.27 47.33 47.04 47.42 48.39 47.61 46.96 47.02 46.49 44.62 44.04 41.64 40.79 36.38 36.27 36.45 37.28 37.21 37.71 38.58 40.09 39.30 42.00 42.80 41.07 42.56 44.76 44.18 43.79 42.53 41.49 41.59 39.41 41.64 36.72 34.96 34.20 30.48 31.11 25.12 35.01 39.04 38.75 36.32 37.54 38.72
47.31 47.70 48.22 47.11 47.49 47.58 48.22 46.72 47.11 46.59 45.38 43.18 41.89 39.49 37.55 33.04 36.04 35.62 36.01 37.37 39.62 40.74 40.73 41.34 43.21 44.53 47.02 43.74 39.18 35.85 36.22 36.33 37.09 38.98 39.34 40.64 37.07 32.64 28.77 27.60 32.61 35.38 36.18 36.46 35.92 37.01 39.80
47.87 47.95 47.61 47.42 47.11 47.20 47.94 47.60 46.68 46.43 45.58 42.38 41.76 41.16 39.03 33.40 34.56 36.15 34.80 36.10 38.61 39.14 39.52 41.44 45.08 46.54 44.99 40.88 37.88 31.60 29.73 32.73 32.14 34.68 40.07 39.26 39.44 34.57 31.14 25.31 25.18 36.37 40.85 43.08 42.86 35.55 41.97
48.31 47.92 46.88 46.79 46.80 46.75 46.97 47.60 47.96 46.25 44.86 42.12 40.91 40.81 38.79 32.42 35.90 36.78 34.44 36.28 40.33 38.58 38.99 39.38 42.10 42.60 43.03 39.92 35.03 32.22 32.18 35.30 31.03 30.11 32.68 33.90 34.52 31.69 30.93 28.66 33.05 40.06 42.88 45.17 34.57 36.64 42.40
48.60 47.47 46.40 46.49 46.46 46.42 46.43 46.83 47.18 47.57 45.39 43.19 40.98 41.34 37.90 33.13 33.51 34.86 38.61 36.85 39.42 39.82 37.70 39.22 40.62 40.38 40.17 37.11 36.37 35.78 34.07 34.70 34.33 36.10 34.07 32.82 31.19 31.10 32.30 28.91 26.11 41.53 42.22 38.51 42.71 43.72 42.48
48.67 46.67 46.29 46.14 46.13 46.58 46.43 46.32 46.26 47.35 47.44 43.38 39.22 40.00 40.56 35.42 34.56 36.57 37.72 39.12 38.36 37.50 35.48 39.98 39.51 39.12 42.31 39.75 38.41 38.63 34.95 34.83 35.43 31.37 37.88 32.48 36.81 34.33 35.82 35.15 40.93 43.53 43.41 45.26 44.65 43.13 43.26
MSLP
1022.14 1021.78 1021.29 1020.89 1020.54 1020.04 1019.34 1018.85 1018.32 1017.85 1017.30 1016.91 1016.53 1016.22 1015.93 1015.51 1015.22 1015.01 1014.93 1014.84 1014.69 1014.50 1014.38 1014.38 1014.46 1014.47 1014.28 1013.62 1012.18 1012.08 1012.11 1012.04 1012.45 1013.04 1012.97 1013.16 1013.25 1013.23 1013.13 1013.22 1013.54 1012.98 1012.95 1012.90 1012.85 1013.01 1012.96
1022.10 1021.67 1021.17 1020.84 1020.45 1019.69 1019.18 1018.63 1018.17 1017.73 1017.12 1016.56 1016.14 1015.81 1015.42 1015.20 1014.92 1014.85 1014.73 1014.56 1014.51 1014.34 1014.24 1014.24 1014.26 1014.22 1013.90 1012.74 1011.43 1011.95 1012.06 1011.69 1011.82 1012.39 1012.73 1013.00 1012.77 1012.90 1013.19 1013.28 1013.11 1013.04 1013.22 1012.98 1013.15 1013.30 1013.30
1022.11 1021.76 1021.38 1020.83 1020.28 1019.50 1019.07 1018.50 1017.89 1017.23 1016.58 1015.89 1015.37 1015.16 1014.94 1014.72 1014.64 1014.38 1014.38 1014.34 1014.23 1014.24 1014.05 1013.96 1013.93 1013.94 1013.35 1011.89 1011.51 1011.70 1011.90 1011.80 1011.91 1012.20 1012.44 1012.84 1012.70 1013.06 1012.97 1013.55 1013.42 1013.37 1013.32 1013.33 1013.39 1013.25 1013.17
1022.22 1021.73 1021.38 1020.90 1020.31 1019.44 1018.93 1018.39 1017.65 1017.06 1016.37 1015.58 1014.99 1014.55 1014.41 1014.22 1014.10 1014.02 1014.08 1014.08 1014.00 1013.93 1013.80 1013.85 1013.76 1013.95 1012.88 1011.47 1011.50 1011.81 1011.78 1011.64 1011.77 1012.43 1012.69 1012.91 1012.96 1013.20 1013.02 1013.49 1013.53 1013.39 1013.48 1013.28 1012.58 1013.15 1013.41
1022.16 1021.59 1021.13 1020.71 1020.20 1019.47 1018.82 1018.13 1017.40 1016.74 1015.86 1015.05 1014.32 1013.77 1013.78 1013.79 1013.63 1013.68 1013.85 1013.73 1013.55 1013.50 1013.54 1013.72 1013.81 1013.50 1011.74 1010.98 1011.28 1011.13 1011.45 1011.23 1011.35 1012.44 1013.02 1013.20 1013.16 1013.00 1013.39 1013.17 1013.41 1013.00 1012.34 1012.71 1012.91 1013.03 1012.95
1022.21 1021.54 1021.15 1020.52 1020.09 1019.45 1018.84 1018.02 1017.29 1016.23 1015.39 1014.74 1013.96 1013.28 1013.16 1013.05 1013.26 1013.52 1013.67 1013.58 1013.42 1013.27 1013.54 1013.66 1013.55 1013.51 1011.45 1010.53 1010.41 1010.80 1011.22 1011.59 1011.69 1012.55 1013.65 1013.54 1013.19 1012.72 1012.74 1012.57 1011.63 1011.75 1012.29 1012.69 1012.64 1013.13 1013.17
1022.17 1021.55 1021.04 1020.63 1020.02 1019.55 1018.87 1017.90 1017.08 1016.46 1015.65 1014.82 1014.09 1013.22 1012.62 1012.80 1013.06 1013.40 1013.57 1013.57 1013.60 1013.52 1013.28 1012.68 1012.51 1012.18 1010.85 1010.59 1010.42 1010.71 1010.97 1012.07 1012.24 1012.73 1012.90 1013.31 1012.80 1011.86 1011.63 1012.13 1012.22 1012.13 1012.75 1012.77 1012.82 1013.48 1013.44
1022.21 1021.70 1021.14 1020.62 1020.06 1019.39 1018.63 1017.97 1017.52 1016.54 1015.60 1014.84 1014.09 1013.25 1012.45 1012.45 1012.86 1013.32 1013.58 1013.43 1013.55 1013.77 1013.04 1012.82 1012.71 1012.37 1011.79 1011.19 1010.47 1010.67 1011.16 1011.17 1011.97 1012.42 1012.95 1013.51 1012.31 1011.83 1012.18 1012.68 1012.77 1012.58 1012.73 1013.06 1013.75 1014.00 1013.79
1022.13 1021.60 1021.14 1020.72 1020.04 1019.32 1018.76 1018.21 1017.52 1016.51 1015.67 1015.05 1014.37 1013.62 1013.00 1012.81 1012.90 1013.60 1013.87 1014.18 1014.07 1013.62 1012.84 1012.92 1012.98 1012.46 1011.71 1010.79 1010.58 1010.88 1011.65 1011.77 1012.27 1012.84 1012.75 1012.73 1012.48 1012.31 1012.65 1012.87 1012.91 1013.14 1013.02 1013.41 1013.57 1014.17 1014.24
1022.10 1021.59 1021.09 1020.51 1020.09 1019.31 1018.67 1018.21 1017.49 1016.53 1015.74 1015.16 1014.44 1013.81 1013.68 1013.12 1013.23 1014.03 1014.42 1014.48 1014.06 1013.57 1012.62 1013.41 1012.81 1012.14 1011.54 1010.82 1011.20 1011.39 1012.27 1012.56 1012.74 1013.38 1013.43 1013.19 1013.11 1012.71 1012.88 1013.09 1013.18 1013.54 1013.86 1013.99 1014.20 1014.22 1013.55
1022.41 1021.59 1021.25 1020.72 1020.04 1019.41 1018.68 1018.17 1017.51 1016.64 1015.91 1015.35 1014.75 1014.09 1013.78 1013.34 1013.76 1014.25 1014.88 1014.50 1014.24 1013.80 1012.93 1013.06 1012.47 1012.12 1011.71 1011.57 1011.73 1012.26 1012.38 1012.58 1013.27 1013.72 1013.90 1014.24 1013.70 1013.31 1013.42 1013.28 1013.77 1014.12 1014.46 1014.55 1014.81 1014.63 1014.33
1022.24 1021.66 1021.08 1020.60 1020.13 1019.55 1018.77 1018.17 1017.55 1016.79 1016.04 1015.50 1014.94 1014.47 1014.06 1014.07 1014.17 1014.99 1014.84 1014.53 1014.34 1013.96 1013.07 1013.12 1012.51 1012.17 1011.84 1011.97 1012.11 1012.30 1012.28 1012.44 1013.26 1013.75 1014.10 1014.89 1014.63 1014.76 1014.87 1014.98 1014.48 1015.05 1015.07 1015.34 1015.54 1015.18 1014.57
1022.27 1021.73 1021.17 1020.60 1020.01 1019.53 1018.82 1018.03 1017.45 1016.78 1016.01 1015.48 1014.78 1014.50 1014.23 1014.36 1014.15 1014.26 1014.41 1014.15 1013.71 1013.21 1013.89 1013.37 1012.66 1012.00 1012.10 1012.01 1012.21 1012.46 1012.20 1012.63 1013.06 1013.91 1014.35 1014.93 1015.70 1015.75 1015.48 1015.63 1015.97 1015.18 1014.95 1015.29 1015.44 1015.16 1014.20
1022.13 1021.61 1021.22 1020.54 1020.09 1019.49 1018.82 1018.06 1017.16 1016.52 1015.87 1015.18 1014.45 1014.31 1014.33 1014.12 1014.18 1014.26 1014.02 1013.58 1012.93 1013.67 1013.09 1013.12 1012.29 1012.18 1012.17 1012.57 1012.99 1012.92 1012.50 1012.87 1012.94 1012.98 1013.78 1014.79 1016.11 1016.04 1016.09 1016.01 1016.06 1015.75 1015.14 1014.24 1014.09 1014.26 1014.13
1022.19 1021.81 1021.22 1020.75 1020.21 1019.66 1018.97 1018.20 1017.17 1016.35 1015.51 1014.68 1014.27 1014.27 1014.10 1014.05 1014.08 1014.08 1013.71 1013.06 1013.99 1013.49 1012.93 1012.42 1012.07 1011.98 1012.38 1012.63 1012.91 1013.05 1013.05 1012.70 1012.80 1012.75 1013.06 1014.22 1015.72 1016.33 1016.38 1015.95 1016.07 1016.09 1015.72 1015.50 1015.00 1015.17 1014.25
1022.28 1021.89 1021.30 1020.79 1020.29 1019.78 1019.12 1018.32 1017.43 1016.34 1015.40 1014.65 1014.50 1014.07 1013.83 1013.97 1013.86 1013.64 1013.08 1013.66 1013.69 1013.30 1012.72 1012.34 1011.87 1012.16 1012.11 1012.45 1012.49 1012.65 1013.06 1013.05 1012.86 1012.91 1012.96 1013.83 1015.04 1015.97 1016.01 1015.94 1015.81 1015.20 1015.49 1015.55 1015.23 1014.54 1013.37
1022.18 1021.84 1021.45 1020.90 1020.38 1019.83 1019.19 1018.33 1017.57 1016.53 1015.34 1014.63 1014.40 1013.79 1013.69 1013.78 1013.80 1012.93 1013.81 1014.16 1013.74 1013.31 1012.81 1012.37 1012.17 1012.05 1012.20 1012.47 1012.65 1012.53 1012.83 1013.01 1012.78 1012.84 1012.88 1013.34 1013.99 1016.00 1016.01 1015.78 1015.36 1015.80 1015.48 1015.53 1015.12 1014.80 1013.62
1022.36 1022.05 1021.48 1020.97 1020.36 1019.73 1019.16 1018.42 1017.55 1016.73 1015.49 1014.85 1014.54 1013.60 1013.46 1013.60 1013.38 1013.73 1014.11 1014.20 1013.81 1013.10 1012.71 1012.39 1012.36 1012.41 1012.37 1012.69 1012.67 1012.60 1012.56 1012.65 1012.83 1012.73 1012.88 1013.62 1014.31 1015.40 1015.96 1016.16 1016.07 1015.67 1015.18 1015.00 1014.56 1015.02 1014.74
1022.33 1022.10 1021.79 1021.04 1020.50 1019.81 1019.22 1018.45 1017.68 1016.94 1016.26 1015.91 1015.01 1014.02 1013.00 1012.83 1013.33 1013.77 1013.99 1013.87 1013.60 1013.08 1012.70 1012.30 1012.25 1012.31 1012.53 1012.49 1012.59 1012.69 1012.83 1013.12 1013.04 1012.92 1012.92 1013.41 1014.30 1015.39 1016.18 1016.43 1016.24 1015.88 1015.65 1015.46 1015.25 1015.00 1014.52
1022.17 1021.99 1021.91 1021.37 1020.90 1020.24 1019.47 1018.74 1017.90 1017.12 1016.43 1016.35 1015.52 1014.56 1013.52 1013.51 1014.12 1013.68 1013.65 1013.52 1013.17 1013.02 1012.61 1012.41 1012.32 1012.34 1012.34 1012.45 1012.55 1012.67 1012.86 1013.18 1013.25 1013.17 1013.30 1013.41 1014.16 1014.66 1014.88 1015.00 1015.19 1015.62 1015.42 1015.48 1015.25 1015.03 1013.90
1022.02 1021.85 1021.74 1021.28 1020.89 1020.29 1019.75 1019.03 1018.23 1017.40 1016.40 1016.34 1016.04 1015.78 1015.54 1014.47 1014.24 1013.97 1013.91 1013.61 1013.12 1012.80 1012.60 1012.34 1012.15 1012.04 1012.03 1012.18 1012.38 1012.55 1012.87 1013.18 1013.41 1013.44 1013.51 1013.70 1014.37 1015.11 1015.26 1015.41 1015.50 1015.28 1015.12 1015.23 1015.04 1014.40 1013.75
1021.98 1021.84 1021.66 1021.45 1020.64 1020.62 1019.99 1019.43 1018.59 1017.80 1016.70 1016.32 1016.82 1016.66 1015.96 1015.29 1014.80 1014.24 1013.88 1013.46 1013.14 1012.88 1012.63 1012.20 1011.96 1012.00 1011.97 1011.84 1011.88 1012.08 1012.39 1012.62 1012.70 1013.50 1013.59 1014.09 1014.92 1015.45 1015.53 1015.62 1015.47 1015.12 1014.72 1014.53 1014.43 1014.15 1013.62
1022.10 1021.98 1021.50 1021.07 1020.78 1020.57 1020.32 1019.74 1019.09 1018.40 1017.59 1017.29 1017.53 1017.34 1017.02 1015.80 1014.96 1014.37 1013.76 1013.55 1013.23 1013.01 1012.78 1012.42 1012.05 1011.94 1012.12 1012.27 1012.22 1012.19 1012.25 1012.39 1012.48 1012.94 1013.49 1013.95 1014.73 1015.39 1015.21 1015.32 1015.00 1014.16 1012.81 1013.07 1013.12 1013.04 1012.75
1021.88 1021.60 1021.34 1020.95 1020.76 1020.36 1020.31 1020.03 1019.50 1018.96 1018.82 1018.68 1018.56 1018.22 1017.38 1015.90 1015.36 1014.54 1014.26 1013.93 1013.43 1013.21 1012.86 1012.61 1012.31 1012.02 1012.70 1012.64 1012.57 1012.54 1012.64 1012.76 1012.93 1013.32 1013.37 1013.83 1014.51 1015.10 1015.14 1014.85 1013.82 1012.18 1012.03 1011.95 1012.03 1012.02 1012.12
1021.69 1021.44 1021.13 1020.88 1020.66 1020.53 1020.34 1020.10 1019.78 1019.34 1019.11 1019.12 1019.19 1018.81 1018.03 1016.88 1015.96 1015.22 1014.90 1014.37 1013.85 1013.40 1013.07 1012.91 1012.78 1012.75 1012.63 1012.63 1012.57 1012.76 1012.91 1013.10 1013.30 1013.54 1013.61 1013.65 1014.13 1014.57 1014.69 1014.04 1012.43 1011.16 1011.47 1011.46 1011.25 1011.00 1011.15
1021.34 1021.28 1021.13 1021.01 1020.80 1020.47 1020.41 1020.19 1019.88 1019.59 1019.42 1019.33 1019.54 1019.42 1018.78 1017.97 1016.37 1016.20 1015.65 1015.09 1014.21 1013.62 1013.41 1013.14 1013.20 1013.23 1013.04 1012.82 1012.73 1012.56 1012.63 1012.74 1013.19 1013.61 1013.80 1013.89 1013.94 1014.18 1014.37 1013.75 1011.87 1010.68 1010.68 1010.81 1010.71 1010.67 1010.70
1021.08 1021.12 1020.93 1020.81 1020.72 1020.56 1020.35 1020.18 1019.91 1019.64 1019.60 1019.62 1019.64 1019.67 1019.16 1018.50 1017.14 1016.72 1016.06 1015.44 1014.87 1014.36 1013.76 1013.57 1013.31 1013.36 1013.37 1012.88 1012.64 1012.54 1012.46 1012.82 1012.64 1012.86 1013.37 1013.62 1013.89 1013.66 1013.51 1012.86 1011.23 1010.46 1010.64 1010.69 1010.87 1011.10 1011.02
1020.86 1020.93 1020.79 1020.52 1020.54 1020.53 1020.27 1020.11 1019.91 1019.73 1019.50 1019.69 1019.76 1019.75 1019.64 1019.01 1017.49 1016.98 1016.55 1016.01 1015.39 1015.06 1014.47 1014.29 1014.07 1013.60 1013.43 1012.99 1012.46 1012.20 1012.03 1012.24 1012.23 1012.00 1012.21 1012.45 1012.89 1012.86 1012.81 1012.31 1010.95 1010.50 1010.83 1010.54 1010.46 1010.80 1011.14
1020.70 1020.76 1020.74 1020.37 1020.37 1020.42 1020.20 1019.93 1019.74 1019.72 1019.48 1019.52 1019.70 1019.73 1019.82 1019.56 1017.74 1017.08 1016.53 1016.29 1016.13 1016.17 1016.13 1014.88 1014.16 1013.38 1012.81 1012.52 1012.44 1012.14 1011.99 1012.18 1011.75 1011.72 1012.17 1011.85 1011.34 1011.36 1011.21 1010.45 1010.09 1010.27 1010.19 1010.31 1010.50 1010.84 1011.12
Wind_Speed
19 19 20 21 21 23 23 23 22 22 23 22 19 18 17 14 12 11 10 10 10 8 8 6 5 7 3 7 10 8 3 1 21 19 19 18 21 17 17 13 11 14 6 8 5 8 6
19 19 20 22 22 23 23 24 22 22 22 21 19 18 16 14 12 11 10 10 9 8 7 6 5 7 6 11 5 2 3 3 19 22 20 18 17 13 13 11 15 13 4 13 9 7 5
19 19 21 21 22 23 23 23 23 22 22 23 20 15 16 14 10 11 9 9 9 7 8 6 3 6 9 12 5 1 4 3 16 20 21 16 12 14 10 7 7 7 15 7 10 10 8
19 20 20 22 23 24 23 22 23 23 23 23 22 18 15 13 11 9 7 10 8 8 9 5 3 4 7 11 16 9 5 7 14 17 19 12 14 12 8 5 10 11 7 12 12 14 6
18 20 21 21 23 23 23 24 24 25 25 24 23 19 11 12 8 7 6 9 9 10 6 4 4 6 5 9 6 13 5 5 16 20 15 11 18 14 7 13 9 15 11 17 5 9 11
19 20 20 21 23 24 25 23 25 25 25 25 23 19 9 6 5 3 3 9 5 4 4 4 2 4 6 11 7 8 8 5 19 19 14 14 10 13 13 15 15 17 17 13 14 5 9
18 20 21 23 22 23 23 24 25 26 27 26 26 26 12 3 5 3 2 1 3 4 3 4 3 3 6 5 4 6 7 1 16 16 10 17 8 16 21 18 3 10 16 10 9 5 5
18 20 21 22 21 22 24 25 26 26 25 24 23 24 18 1 6 6 2 1 3 4 3 4 6 7 10 7 5 6 4 9 9 19 13 10 16 14 12 12 9 14 14 10 5 4 5
16 18 20 22 23 23 24 24 25 24 23 23 23 20 16 16 11 6 2 5 4 4 3 4 3 5 5 5 7 6 4 4 18 18 19 14 11 14 15 12 11 9 11 9 3 5 1
16 18 19 21 22 22 22 23 24 22 21 21 21 18 16 2 6 2 4 5 3 3 3 4 1 2 2 3 6 4 6 3 6 6 10 8 1 17 18 15 13 9 4 7 5 5 4
17 18 20 21 21 23 24 23 23 22 20 20 18 16 11 13 3 5 4 3 2 3 3 9 4 2 6 4 9 6 5 4 9 6 4 3 7 18 18 19 13 4 7 8 3 2 3
15 17 18 20 21 23 24 24 23 22 20 19 19 12 7 4 4 2 1 3 3 4 9 4 6 6 5 3 3 6 4 10 6 9 11 4 4 4 4 10 6 15 10 7 3 1 4
14 17 18 19 21 22 24 25 24 23 22 19 17 12 3 1 1 2 2 2 3 7 3 7 4 5 6 5 7 5 4 5 4 4 3 3 3 3 3 10 6 6 11 4 4 4 2
13 15 17 19 21 22 24 25 26 25 24 21 15 7 1 0 2 2 1 3 10 6 5 2 4 12 5 4 5 3 7 4 4 3 4 4 4 4 2 2 5 5 3 2 5 5 4
12 15 17 19 21 22 24 25 27 27 26 22 6 1 2 2 3 3 2 7 3 2 2 6 8 7 4 6 5 4 3 3 2 2 3 5 4 3 6 6 4 5 4 2 4 1 3
11 14 16 18 20 22 24 25 27 28 26 17 2 1 1 3 5 3 1 6 1 1 2 2 2 1 4 3 3 4 4 1 3 1 3 3 6 2 4 1 8 1 8 3 0 5 5
12 13 16 17 20 21 24 26 27 28 28 10 2 1 2 2 4 3 5 4 3 2 3 3 2 2 4 3 2 2 2 2 1 2 2 5 3 3 4 3 6 4 3 2 2 2 3
12 13 16 16 19 21 23 25 27 28 28 5 3 1 3 5 3 2 3 2 3 3 2 2 3 3 3 2 3 2 3 1 1 2 3 2 5 4 2 2 3 2 3 5 4 5 1
10 13 15 17 17 20 22 24 26 27 22 5 4 3 1 3 3 2 1 1 2 2 3 1 2 1 1 3 2 2 2 2 2 1 5 6 3 5 2 2 1 5 6 4 5 2 5
9 12 14 17 16 20 22 24 25 27 22 2 2 1 2 4 2 1 2 1 1 2 1 1 3 2 4 2 3 4 4 2 0 1 5 2 3 1 3 3 4 5 9 9 5 4 5
8 12 14 15 16 18 20 22 25 27 21 2 3 3 2 1 3 3 0 0 1 1 0 0 2 1 3 3 3 4 3 3 2 3 2 1 2 1 1 1 3 3 7 13 10 9 6
8 11 13 16 16 17 19 20 23 26 19 3 3 3 2 1 1 1 1 2 0 1 2 1 2 5 3 2 2 6 6 4 3 4 3 1 3 1 2 1 6 8 11 12 16 15 15
8 10 12 15 15 14 16 17 20 22 15 3 2 2 2 1 3 4 3 2 1 1 1 2 3 3 3 1 1 2 3 4 4 7 6 5 6 2 1 0 4 8 18 19 11 10 15
5 9 11 13 13 15 13 15 16 15 13 3 3 2 2 1 4 1 1 1 1 1 2 0 1 0 5 6 8 7 7 7 6 3 5 6 5 2 1 3 5 3 3 5 18 11 16
6 9 10 11 12 13 12 12 13 13 12 3 3 2 2 4 3 4 2 3 4 1 2 1 1 2 6 2 3 4 2 2 3 3 4 4 4 2 2 4 9 4 5 6 6 6 17
7 8 9 10 11 12 14 12 11 10 9 2 2 2 2 3 0 1 3 2 2 3 3 2 2 2 1 1 2 4 5 3 5 3 3 4 4 4 3 3 5 3 5 5 4 4 5
7 6 6 8 11 11 12 14 13 9 3 1 1 3 1 2 2 3 3 3 2 2 1 1 3 3 0 3 4 5 5 1 6 6 6 5 3 9 7 5 6 4 6 4 4 4 1
7 4 5 6 8 11 11 13 14 13 4 1 1 1 2 3 7 4 3 4 3 3 2 3 3 3 3 6 5 4 5 6 4 5 7 9 7 5 7 5 8 6 5 5 5 3 2
6 3 5 5 8 12 12 12 10 13 16 4 2 1 1 3 5 4 7 11 8 6 2 3 4 2 3 5 3 2 3 4 5 5 3 8 7 4 8 4 2 7 2 3 3 1 3
Wind_Direction
346 350 344 345 349 341 332 335 332 331 329 328 323 321 315 311 309 312 311 317 312 309 299 289 265 270 235 211 234 141 44 217 206 198 195 187 191 191 194 193 187 219 194 202 190 173 163
346 348 346 349 347 335 340 339 339 339 332 329 328 322 314 306 298 297 298 299 291 295 292 274 261 264 222 236 231 205 226 6 187 191 197 194 198 185 200 194 195 197 189 204 195 193 172
351 348 352 345 348 337 340 344 341 334 330 327 325 318 310 307 298 298 301 299 299 312 306 296 233 253 239 233 150 64 221 179 184 192 194 194 196 184 164 168 174 175 207 201 209 222 227
349 349 353 349 346 340 350 343 336 337 330 324 318 311 306 302 295 299 297 292 282 297 307 266 247 221 253 245 240 257 239 200 191 198 200 188 190 176 177 149 166 181 190 199 218 209 199
348 348 353 346 348 344 343 347 344 338 337 337 335 320 306 280 290 293 302 313 301 283 268 217 217 223 243 142 190 205 203 188 179 182 203 182 180 191 150 164 157 192 201 211 190 205 212
350 349 350 349 349 345 356 343 338 338 342 349 345 345 272 271 290 282 287 331 12 137 157 171 218 221 234 188 169 173 156 108 166 167 182 198 181 176 180 186 198 188 204 209 215 166 218
349 351 347 355 351 353 343 344 346 346 353 354 360 1 340 217 265 153 316 170 181 127 200 240 194 278 85 104 157 163 116 272 173 167 171 196 183 188 185 198 249 169 194 197 217 133 225
348 349 354 355 356 350 345 351 349 353 353 359 2 12 7 152 220 129 132 41 25 5 213 247 281 272 274 274 126 147 130 172 163 169 167 171 211 192 170 176 179 178 179 190 127 159 238
350 349 354 352 357 354 349 351 350 354 353 1 6 13 37 65 70 101 70 45 355 300 240 73 54 262 276 200 132 130 82 10 173 173 177 176 182 163 174 174 160 179 183 164 144 160 168
347 349 354 355 358 353 350 352 351 353 354 355 8 22 26 5 51 54 58 329 289 299 228 94 269 150 181 185 70 43 87 106 44 135 169 155 149 175 181 187 180 166 123 130 133 213 232
346 350 352 354 358 353 349 354 353 350 351 350 356 13 43 34 94 64 4 313 294 268 78 3 346 344 79 52 123 36 82 179 126 135 174 90 184 178 184 188 198 116 146 111 97 123 287
344 346 353 353 357 354 349 351 353 349 350 348 343 351 4 61 66 51 306 303 262 248 39 37 335 113 78 24 77 136 173 66 75 86 68 56 42 29 74 72 179 139 110 80 94 228 229
343 345 351 353 357 354 351 347 349 351 347 345 335 325 11 291 78 214 295 237 243 39 303 14 59 115 94 80 60 46 117 81 121 127 107 57 35 91 79 76 18 194 157 140 186 202 260
343 345 349 355 356 356 352 349 345 347 347 340 327 311 130 124 195 229 275 228 55 29 70 178 98 92 55 47 46 14 119 72 60 97 115 85 97 11 33 127 155 142 196 239 190 187 141
342 347 350 357 356 356 353 351 346 344 345 341 336 133 226 177 257 209 245 48 43 2 73 139 125 86 91 78 110 96 47 94 75 346 81 124 88 125 202 155 179 154 202 40 100 95 246
344 345 352 359 359 354 353 353 349 344 343 349 341 280 184 323 179 202 33 88 66 316 11 343 67 354 147 112 148 140 170 111 116 359 292 129 114 98 156 156 55 290 130 145 236 179 223
349 346 352 358 357 355 354 353 352 348 344 342 305 197 123 149 197 62 59 41 23 7 347 3 88 106 101 119 87 99 93 120 188 91 95 127 91 128 187 205 168 143 178 76 102 302 276
348 347 349 355 354 356 355 354 353 353 347 26 318 57 116 174 56 46 46 323 339 344 349 97 102 97 130 130 123 118 120 79 127 156 104 61 107 139 116 36 323 293 231 214 236 177 79
352 349 346 348 356 355 356 356 355 354 358 323 352 306 44 267 100 93 132 187 244 339 14 46 105 11 152 134 131 78 102 29 160 143 156 169 119 118 133 218 175 224 195 215 103 55 197
357 356 349 348 354 356 356 357 355 353 354 318 311 293 19 56 37 75 135 62 172 169 16 50 110 145 144 118 35 138 137 52 354 41 71 109 127 258 190 88 122 197 199 198 182 189 174
3 -0 353 347 356 356 356 357 355 354 352 298 1 47 349 79 87 101 221 161 294 183 77 116 131 188 150 136 134 144 143 127 98 135 71 23 110 117 220 145 186 214 200 197 208 208 213
359 357 357 352 350 353 356 357 356 359 349 69 8 355 334 93 128 182 175 153 290 147 280 137 175 161 190 171 213 179 166 193 174 160 168 138 132 144 209 163 230 247 234 220 222 229 246
350 353 350 356 347 354 355 358 358 10 359 49 6 297 310 73 185 205 157 152 160 239 177 261 172 210 168 94 217 301 173 169 166 170 168 158 144 171 222 307 278 253 227 211 207 209 219
348 339 342 347 348 349 351 356 357 12 22 346 12 299 306 246 263 207 161 265 198 356 311 166 290 259 119 115 113 102 94 106 137 117 172 155 128 130 312 270 232 54 144 201 217 220 217
286 323 341 354 354 346 351 355 1 7 18 36 349 345 339 284 293 265 266 272 287 241 185 263 32 29 156 154 126 140 129 161 97 68 184 181 150 150 255 252 298 262 182 167 186 208 215
297 314 345 352 347 350 354 348 353 2 5 41 13 314 329 305 213 343 278 278 252 205 187 178 95 42 286 141 164 212 205 185 182 165 51 152 241 210 164 257 253 52 137 183 223 151 164
286 309 337 345 348 339 344 351 339 340 16 32 339 3 302 290 272 251 246 258 259 274 272 161 159 164 63 198 203 207 217 228 189 196 171 169 187 219 222 261 282 211 154 148 199 118 214
276 295 322 334 336 346 342 350 358 330 343 287 339 347 346 296 277 241 261 254 283 247 239 87 167 188 156 204 221 187 221 198 207 188 181 184 187 190 211 220 253 146 136 213 106 128 240
232 263 312 294 313 323 328 332 333 340 325 157 273 183 177 236 274 218 250 266 248 263 311 280 334 279 204 203 211 194 180 180 187 208 187 204 209 190 214 221 48 194 282 122 101 262 213